If you wish to contribute or participate in the discussions about articles you are invited to join SKYbrary as a registered user

 Actions

Uberaba Airport

From SKYbrary Wiki

SBUR
Airport
ICAO: SBUR – IATA: UBA
Summary
Name Uberaba Airport
Region South America and Caribbean
Territory Brazil BR.gif
Location Uberaba, Minas Gerais
Serving Uberaba
Elevation 809.244 m
2,655 ft809.244 m
Coordinates 19° 45' 52.99" S, 47° 57' 58.00" W
Runways
Designator Length Width Surface ROPS
17/35 1759 m5,770.997 ft
45 m147.638 ft
ASP /


METAR
Observation SBUR 120800Z 14007KT CAVOK 21/18 Q1014
Station Uberaba
Date/Time 12 November 2019 08:00:00
Wind direction 140°
Wind speed 07 kts
Lowest cloud amount clouds and visibility OK
Temperature 21°C
Dew point 18°C
Humidity 83%
QNH 1014 hPa
Weather condition n/a

Uberaba–Mário de Almeida Franco Airport is the airport serving Uberaba, Brazil.

Climatology

Humid subtropical climate (Köppen climate classification Cwb)

Maps

Terrain

Loading map...

Airport Layout

Loading map...


Accidents & Serious Incidents at or in vicinity of SBUR

None on SKYbrary